SCP
0 0 0 0 0 0 0 0 0 0 0 0 0 0 0 0 1 1 1 0 1 1 1 1 0 0 0 0 0 0 0 0 0 0 0 0 0 0 0 0 0 0 0 0
0 0 0 0 0 0 0 0 0 0 0 0 0 0 0 0 1 1 1 1 1 1 1 1 1 0 0 0 0 0 0 0 0 0 0 0 0 0 0 0 0 0 0 0
0 0 0 0 0 0 0 0 0 0 0 0 0 0 0 1 1 1 1 1 1 1 1 1 1 0 0 0 0 0 0 0 0 0 0 0 0 0 0 0 0 0 0 0
0 0 0 0 0 0 0 0 0 0 0 0 1 1 1 1 1 1 1 1 1 1 1 1 1 0 0 0 0 0 0 0 0 0 0 0 0 0 0 0 0 0 0 0
0 0 0 0 0 0 0 0 0 0 1 1 1 1 1 1 1 1 1 1 1 1 1 1 1 0 0 0 0 0 0 0 0 0 0 0 0 0 0 0 0 0 0 0
0 0 0 0 0 0 0 0 0 0 1 1 1 1 1 1 1 1 1 1 1 1 1 1 1 1 0 0 0 0 0 0 0 0 0 0 0 0 0 0 0 0 0 0
0 0 0 0 0 0 0 0 0 1 1 1 1 1 1 1 1 1 1 1 1 1 1 1 1 1 0 0 0 0 0 0 0 0 0 0 0 0 0 0 0 0 0 0
0 0 0 0 0 0 0 0 1 1 1 1 1 1 1 1 1 1 1 1 1 1 1 1 1 1 0 0 0 0 0 0 0 0 0 0 0 0 0 0 0 0 0 0
0 0 0 0 0 0 0 0 1 1 1 1 1 1 1 1 1 1 1 1 1 1 1 1 1 0 0 0 0 0 0 0 0 0 0 0 0 0 0 0 0 0 0 0
0 0 0 0 0 0 0 0 1 1 1 1 1 1 1 1 1 1 1 1 1 1 1 1 0 0 0 0 0 0 0 0 0 0 0 0 0 0 0 0 0 0 0 0
0 0 0 0 0 0 0 0 1 1 1 1 1 1 1 1 1 1 1 1 1 1 1 0 0 0 0 0 0 0 0 0 0 0 0 0 0 0 0 0 0 0 0 0
0 0 0 0 0 0 0 0 1 1 1 1 1 1 1 0 0 0 1 1 1 1 0 0 0 0 0 0 0 0 0 0 0 0 0 0 0 0 0 0 0 0 0 0
0 0 0 0 0 0 0 0 0 1 1 1 1 0 0 0 0 0 0 0 0 0 0 0 0 0 0 0 0 0 0 0 0 0 0 0 0 0 0 0 0 0 0 0
0 0 0 0 0 0 0 0 0 0 0 1 0 0 0 0 0 0 0 0 0 0 0 0 0 0 0 0 0 0 0 0 0 0 0 0 0 0 0 0 0 0 0 0
0 0 0 0 0 0 0 0 0 0 0 0 0 0 0 0 0 0 0 0 0 0 0 0 0 0 0 0 0 0 0 0 0 0 0 0 0 0 0 0 0 0 0 0
0 0 0 0 0 0 0 0 0 0 0 0 0 0 0 0 0 0 0 0 0 0 0 0 0 0 0 0 0 0 0 0 0 0 0 0 0 0 0 0 0 0 0 0
0 0 0 0 0 0 0 0 0 0 0 0 0 0 0 0 0 0 0 0 0 0 0 0 0 0 0 0 0 0 0 0 0 0 0 0 0 0 0 0 0 0 0 0
0 0 0 0 0 0 0 0 0 0 0 0 0 0 0 0 0 0 0 0 0 0 0 0 0 0 0 0 0 0 0 0 0 0 0 0 0 0 0 0 0 0 0 0
0 0 0 0 0 0 0 0 0 0 0 0 0 0 0 0 0 0 0 0 0 0 0 0 0 0 0 0 0 0 0 0 0 0 0 0 0 0 0 0 0 0 0 0
0 0 0 0 0 0 0 0 0 0 0 0 0 0 0 0 0 0 0 0 0 0 0 0 0 0 0 0 0 0 0 0 0 0 0 0 0 0 0 0 0 0 0 0
0 0 0 0 0 0 0 0 0 0 0 0 0 0 0 0 0 0 0 0 0 0 0 0 0 0 0 0 0 0 0 0 0 0 0 0 0 0 0 0 0 0 0 0
0 0 0 0 0 0 0 0 0 0 0 0 0 0 0 0 0 0 0 0 0 0 0 0 0 0 0 0 0 0 0 0 0 0 0 0 0 0 0 0 0 0 0 0
0 0 0 0 0 0 0 0 0 0 0 0 0 0 0 0 0 0 0 0 0 0 0 0 0 0 0 0 0 0 0 0 0 0 0 0 0 0 0 0 0 0 0 0
0 0 0 0 0 0 0 0 0 0 0 0 0 0 0 0 0 0 0 0 0 0 0 0 0 0 0 0 0 0 0 0 0 0 0 0 0 0 0 0 0 0 0 0
0 0 0 0 0 0 0 0 0 0 0 0 0 0 0 0 0 0 0 0 0 0 0 0 0 0 0 0 0 0 0 0 0 0 0 0 0 0 0 0 0 0 0 0
0 0 0 0 0 0 0 0 0 0 0 0 0 0 0 0 0 0 0 0 0 0 0 0 0 0 0 0 0 0 0 0 0 0 0 0 0 0 0 0 0 0 0 0
0 0 0 0 0 0 0 0 0 0 0 0 0 0 0 0 0 0 0 0 0 0 0 0 0 0 0 0 0 0 0 0 0 0 0 0 0 0 0 0 0 0 0 0
Wind_Speed
4 4 3 4 5 7 6 8 9 9 8 10 8 8 7 5 6 6 6 6 6 6 5 5 5 4 4 4 4 4 5 4 4 3 3 2 2 2 2 2 2 2 2 2
1 2 2 1 2 5 4 4 5 3 7 7 2 3 3 5 7 8 7 7 7 6 6 6 6 5 4 4 4 4 5 4 3 3 3 3 3 3 3 3 2 3 2 2
2 1 2 2 3 3 2 2 4 6 7 2 2 5 7 7 8 8 8 7 7 7 6 6 6 6 5 5 4 4 4 4 4 4 3 3 3 3 3 3 3 3 2 3
3 3 4 7 2 3 4 1 1 3 3 3 4 2 1 3 6 6 6 6 6 5 5 4 5 5 5 5 5 4 4 4 4 4 4 3 3 3 3 3 3 2 2 2
4 3 3 3 0 2 3 0 1 2 1 1 3 4 3 1 3 5 5 5 5 5 5 5 6 7 7 5 4 4 3 4 4 4 4 4 3 3 3 3 3 2 2 2
5 5 6 6 2 2 3 1 2 1 1 2 3 3 2 1 2 3 3 3 4 5 6 6 5 6 7 6 5 4 3 4 4 5 5 4 3 3 2 3 2 2 2 2
4 3 5 4 5 1 4 5 2 1 2 3 2 2 1 1 2 4 4 4 5 6 5 5 6 7 6 5 4 3 4 4 4 4 4 4 3 3 3 3 3 2 2 2
4 3 6 4 2 3 4 1 1 1 2 4 3 3 3 3 3 5 5 5 6 6 5 4 5 6 6 4 3 4 4 4 4 4 4 4 4 3 3 3 3 2 2 2
5 5 4 3 1 1 1 2 1 2 3 4 4 4 4 4 4 5 5 4 4 6 6 4 4 5 5 4 4 5 5 4 4 4 3 4 4 4 3 2 2 1 1 1
1 2 3 3 2 3 2 1 2 3 3 4 5 4 4 4 4 5 4 4 3 5 5 4 3 3 4 5 5 6 6 5 4 4 4 3 3 3 3 2 2 1 1 1
1 1 2 3 3 2 2 3 4 4 4 4 5 4 4 4 4 4 4 4 3 3 4 3 3 3 3 4 5 5 5 4 4 4 4 3 3 2 2 1 2 2 2 2
4 5 3 2 3 1 2 3 3 4 4 3 3 4 3 3 2 3 3 3 3 3 3 3 3 3 3 4 5 6 4 4 3 3 4 4 4 3 4 2 2 2 2 2
3 3 3 1 2 2 1 1 2 2 2 2 2 2 3 3 3 3 3 3 3 3 2 3 3 2 2 3 4 5 4 4 3 3 3 4 3 3 2 2 3 3 2 2
1 2 2 1 1 2 1 2 3 3 3 2 2 3 4 4 3 3 2 2 3 3 2 2 3 2 2 3 4 4 4 4 4 3 4 3 3 3 2 2 1 1 1 1
1 2 2 1 2 2 2 3 3 3 3 3 2 3 3 3 3 2 2 2 3 3 2 2 2 1 1 3 4 4 3 3 3 3 3 3 3 3 2 2 2 1 1 1
1 1 1 2 1 1 1 1 2 0 0 1 1 1 2 3 3 2 2 3 4 2 1 1 1 1 2 3 3 3 3 4 4 3 3 3 3 3 3 2 2 1 1 1
1 1 1 1 1 0 1 2 2 2 1 1 1 2 3 3 3 3 2 2 2 2 1 1 1 1 2 2 3 2 2 3 5 4 3 3 3 3 3 2 2 2 1 1
3 4 4 3 3 2 2 2 1 2 2 2 2 3 3 3 3 3 2 2 3 2 1 0 0 1 2 2 2 2 2 3 3 3 3 3 3 3 2 2 2 2 1 1
1 2 2 2 2 2 2 2 1 1 1 2 3 2 2 2 3 3 2 3 2 0 1 0 1 2 1 1 2 2 3 3 3 2 3 3 3 2 2 2 2 2 2 1
2 1 1 0 0 1 1 1 1 1 1 2 3 2 2 2 2 3 3 2 1 1 1 1 1 2 2 2 3 2 3 3 3 3 2 2 3 2 2 2 2 2 2 2
3 2 1 0 0 0 1 1 1 1 1 1 2 2 2 2 2 2 2 1 1 0 0 1 1 1 1 2 3 3 3 3 3 3 3 2 2 2 2 2 2 2 2 2
3 2 1 1 1 0 0 1 1 2 1 1 1 2 2 2 2 2 1 1 1 1 1 1 1 2 3 3 3 3 3 3 3 2 2 2 2 2 1 1 1 1 1 1
2 2 1 0 0 1 1 1 2 2 2 1 1 2 2 2 1 2 0 0 1 2 2 2 3 5 5 4 3 3 3 3 3 2 2 2 2 2 1 1 1 1 1 1
2 1 1 1 1 2 2 2 2 2 2 1 1 2 2 2 1 1 1 2 3 4 3 3 5 6 5 3 3 3 3 3 2 2 2 2 1 1 1 1 0 0 0 1
1 1 1 2 2 1 1 2 3 3 3 2 2 2 2 1 1 1 2 3 4 5 3 4 6 6 4 3 3 3 3 3 2 2 2 2 2 1 1 1 1 0 0 0
1 1 1 1 1 1 2 2 2 2 2 2 2 2 2 2 3 3 3 4 5 5 4 3 4 4 3 4 4 4 3 3 3 3 2 2 2 2 2 1 1 1 1 0
2 2 2 2 2 2 2 2 2 2 2 2 2 2 2 2 3 3 4 4 4 4 4 4 3 3 4 4 4 3 3 3 3 2 2 2 2 2 1 1 1 1 1 1
Wind_Direction
212 217 179 180 178 168 171 176 180 220 224 246 229 212 205 189 167 161 169 176 178 175 169 159 154 157 149 137 133 135 135 136 150 149 139 128 117 114 117 118 122 119 116 108
218 230 195 179 190 175 186 178 202 219 250 254 229 157 170 174 170 178 189 189 184 175 170 170 167 160 148 143 141 137 139 149 150 141 136 132 126 120 113 102 95 94 98 107
211 273 100 242 228 177 173 184 178 205 236 242 163 179 191 188 182 188 193 188 182 180 178 174 165 156 154 149 137 137 145 148 145 142 136 133 129 117 111 105 96 94 94 101
133 106 194 240 245 149 138 146 258 254 260 228 201 178 159 175 183 191 191 187 183 172 163 156 145 138 135 133 136 141 144 144 145 143 138 131 122 116 105 101 103 94 85 89
123 152 245 279 168 141 150 282 308 254 243 133 128 79 24 63 168 184 185 180 165 153 148 142 140 139 132 131 129 131 149 155 153 149 143 136 131 122 113 108 98 90 84 84
123 142 209 231 284 315 122 290 301 271 177 157 115 116 261 337 109 124 127 131 131 131 126 133 139 135 134 139 138 150 165 158 150 148 147 146 142 126 112 113 107 95 75 65
135 167 247 262 301 358 156 231 284 246 185 144 133 185 212 44 83 99 106 113 118 118 121 133 139 138 140 143 155 153 137 136 136 142 145 137 127 120 119 111 102 88 73 56
134 155 240 310 358 158 201 205 102 92 99 105 100 82 72 72 83 91 96 106 117 119 116 117 130 139 144 155 153 132 130 129 131 133 134 128 121 112 110 111 109 96 76 60
178 203 258 308 279 286 157 134 107 97 90 104 95 78 73 78 79 83 94 102 110 121 118 122 129 142 150 154 140 133 129 129 123 117 112 116 122 126 118 115 115 105 95 75
75 311 321 338 -0 20 43 104 101 109 108 97 92 91 87 92 92 92 91 94 97 112 118 119 119 125 136 138 142 140 140 139 133 127 117 111 112 119 127 135 140 146 147 147
94 279 345 355 357 6 40 67 76 77 88 97 98 95 102 107 104 103 94 85 88 104 117 123 118 108 117 129 138 139 140 139 132 127 129 120 105 92 122 136 171 173 188 183
199 217 188 256 306 345 58 64 76 81 66 64 101 120 115 108 105 100 103 103 105 109 116 122 122 116 118 134 144 145 147 149 146 139 138 138 133 100 61 75 77 96 131 153
196 187 182 237 335 360 55 56 68 85 103 91 67 100 110 111 111 106 103 111 123 128 136 137 132 128 135 142 142 147 154 155 149 149 154 156 155 151 135 64 66 71 85 128
170 128 106 62 31 359 33 48 59 63 60 76 84 88 105 105 101 104 114 127 124 116 125 138 139 150 154 144 139 142 148 154 155 161 163 163 162 162 160 156 145 58 36 85
350 139 159 141 68 40 43 67 66 51 48 50 71 96 117 123 127 127 119 111 109 114 127 137 141 175 164 154 154 157 158 161 161 159 158 157 155 155 158 160 153 125 70 56
327 87 129 114 87 38 39 85 106 105 80 91 98 127 135 136 132 118 116 130 134 145 169 156 179 202 173 162 162 164 166 159 153 154 151 150 154 158 161 161 158 149 146 121
203 223 191 169 171 196 251 247 204 206 207 201 186 151 128 122 118 118 115 115 125 135 154 165 206 180 164 164 162 160 157 155 151 150 156 160 165 172 171 168 171 176 185 170
228 225 211 196 195 204 230 252 225 203 208 212 166 135 139 145 152 157 147 113 99 81 34 339 189 156 156 158 158 153 152 155 158 160 159 163 166 169 165 165 170 169 148 133
282 266 257 217 200 193 209 231 223 203 192 166 138 142 154 158 153 144 130 118 123 146 301 308 144 138 145 156 149 150 151 150 149 148 150 150 149 149 158 164 167 168 164 158
348 328 304 269 170 172 201 221 189 159 148 142 132 130 137 148 148 144 133 130 221 243 244 218 151 138 146 150 145 153 152 148 146 142 139 144 145 148 158 167 171 175 181 187
345 351 1 345 323 154 170 177 165 142 117 136 149 159 160 146 134 133 126 130 313 349 131 140 137 139 137 140 139 148 144 141 142 143 142 142 142 149 166 174 178 183 193 203
336 345 345 2 103 120 87 110 127 124 109 101 120 131 125 116 110 101 98 164 199 143 131 125 117 122 126 125 128 130 132 135 132 131 135 143 151 159 180 192 196 197 203 207
325 313 312 317 143 114 60 77 109 122 123 128 135 136 135 136 136 134 147 317 124 133 123 115 113 115 115 114 118 120 122 125 126 130 136 146 152 158 173 195 211 209 210 215
327 326 342 45 94 97 84 68 81 89 93 87 97 122 126 115 68 53 127 122 114 114 103 105 106 103 102 100 106 106 104 107 110 112 114 116 122 131 143 152 171 179 187 225
2 40 70 83 89 95 100 97 85 78 77 76 71 67 73 99 120 109 100 105 108 108 97 96 100 100 97 96 97 96 93 94 101 102 98 98 103 113 116 112 116 103 63 26
25 41 54 72 97 109 111 104 92 82 87 83 65 57 63 72 87 93 94 94 95 98 96 94 98 99 94 92 91 93 93 93 95 96 100 102 99 94 85 80 83 75 56 21
35 45 57 60 62 77 91 94 97 90 91 101 87 65 65 72 84 91 92 91 89 86 84 81 84 91 94 93 91 87 88 88 88 87 88 87 84 82 76 67 48 43 37 23